Weather History for Saipan, MP

Change the Weather History Date:

Sunday, September 8, 2013

  Actual Average Record
Temperature  
Mean Temperature 81 °F -  
Max Temperature 87 °F 84 °F 89 °F (1998)
Min Temperature 75 °F 76 °F 75 °F (1999)
Cooling Degree Days 16    
Growing Degree Days 31 (Base 50)    
Moisture  
Dew Point 76 °F    
Average Humidity 85    
Maximum Humidity 97    
Minimum Humidity 72    
Precipitation  
Precipitation 1.40 in - - ()
Sea Level Pressure  
Sea Level Pressure 29.95 in    
Wind  
Wind Speed 10 mph (ENE)    
Max Wind Speed 25 mph    
Max Gust Speed 34 mph    
Visibility 9 miles    
Events Rain    
Averages and records for this station are not official NWS values.
T = Trace of Precipitation, MM = Missing Value Source: NWS Daily Summary

Daily Weather History Graph

Daily Weather History Graph

Search for Another Location

Airport:

Trip Planner

Search our weather history database for the weather conditions in past years. The results will help you decide how hot, cold, wet, or windy it might be!

Date:

Astronomy

Sep. 08, 2013 Rise Set
Actual Time 6:05 AM ChST 6:24 PM ChST
Civil Twilight 5:43 AM ChST 6:45 PM ChST
Nautical Twilight 5:18 AM ChST 7:10 PM ChST
Astronomical Twilight 4:53 AM ChST 7:36 PM ChST
Moon 8:08 AM ChST (9/8) 8:12 PM ChST (9/8)
Length of Visible Light 13h 02m
Length of Day
12h 19m
Waxing Crescent, 7% of the Moon is Illuminated
Sep 8
Waxing Crescent
Sep 13
First Quarter
Sep 19
Full
Sep 27
Last Quarter
Oct 5
New

Hourly Weather History & Observations

Time (ChST) Temp. Heat Index Dew Point Humidity Pressure Visibility Wind Dir Wind Speed Gust Speed Precip Events Conditions
12:54 AM 80.1 °F 85.1 °F 75.0 °F 85% 29.96 in 10.0 mi East 9.2 mph - 0.02 in   Mostly Cloudy
1:11 AM 77.0 °F - 75.2 °F 94% 29.91 in 2.5 mi ESE 25.3 mph 34.5 mph 0.06 in Rain Heavy Rain
1:54 AM 75.9 °F - 75.0 °F 97% 29.97 in 2.0 mi East 11.5 mph 23.0 mph 1.15 in Rain Heavy Rain
2:06 AM 77.0 °F - 75.2 °F 94% 29.90 in 5.0 mi East 8.1 mph - 0.10 in Rain Light Rain
2:54 AM 78.1 °F - 75.9 °F 93% 29.95 in 10.0 mi ESE 8.1 mph - 0.12 in   Mostly Cloudy
3:54 AM 79.0 °F - 73.0 °F 82% 29.94 in 10.0 mi SE 4.6 mph - 0.00 in Rain Light Rain
4:54 AM 80.1 °F 85.1 °F 75.0 °F 85% 29.94 in 10.0 mi South 6.9 mph - 0.00 in   Partly Cloudy
5:54 AM 78.1 °F - 75.0 °F 90% 29.96 in 10.0 mi Calm Calm - N/A   Clear
6:54 AM 79.0 °F - 75.9 °F 90% 29.95 in 10.0 mi Calm Calm - 0.00 in   Partly Cloudy
7:54 AM 82.9 °F 91.8 °F 77.0 °F 82% 29.96 in 10.0 mi ENE 9.2 mph - N/A   Mostly Cloudy
8:54 AM 82.0 °F 90.2 °F 77.0 °F 85% 29.98 in 10.0 mi East 15.0 mph - N/A   Mostly Cloudy
9:54 AM 82.9 °F 90.8 °F 75.9 °F 79% 29.96 in 10.0 mi East 13.8 mph - N/A   Mostly Cloudy
10:54 AM 82.9 °F 90.8 °F 75.9 °F 79% 29.96 in 10.0 mi ENE 10.4 mph - N/A   Clear
11:54 AM 84.9 °F 96.6 °F 78.1 °F 80% 29.95 in 10.0 mi East 9.2 mph - N/A   Clear
12:54 PM 87.1 °F 101.5 °F 79.0 °F 77% 29.93 in 10.0 mi East 12.7 mph - N/A   Scattered Clouds
1:54 PM 87.1 °F 98.8 °F 77.0 °F 72% 29.92 in 10.0 mi East 10.4 mph - N/A   Scattered Clouds
2:54 PM 87.1 °F 98.8 °F 77.0 °F 72% 29.91 in 10.0 mi East 12.7 mph - 0.00 in   Scattered Clouds
3:54 PM 84.9 °F 95.3 °F 77.0 °F 77% 29.91 in 10.0 mi ENE 10.4 mph - N/A   Partly Cloudy
4:54 PM 81.0 °F 86.7 °F 75.0 °F 82% 29.92 in 10.0 mi East 9.2 mph - 0.06 in   Overcast
5:54 PM 80.1 °F 85.4 °F 75.9 °F 87% 29.94 in 10.0 mi North 4.6 mph - 0.01 in   Mostly Cloudy
6:54 PM 80.1 °F 85.4 °F 75.9 °F 87% 29.94 in 10.0 mi North 4.6 mph - N/A   Partly Cloudy
7:54 PM 81.0 °F 87.9 °F 77.0 °F 88% 29.97 in 10.0 mi North 4.6 mph - N/A   Scattered Clouds
8:54 PM 81.0 °F 87.9 °F 77.0 °F 88% 29.98 in 10.0 mi East 15.0 mph 21.9 mph N/A   Mostly Cloudy
9:11 PM 78.8 °F - 75.2 °F 89% 29.92 in 5.0 mi East 12.7 mph - 0.04 in   Overcast
9:54 PM 80.1 °F 85.4 °F 75.9 °F 87% 29.99 in 10.0 mi ENE 12.7 mph - 0.04 in   Clear
10:54 PM 79.0 °F - 75.0 °F 88% 29.98 in 10.0 mi NNE 10.4 mph - N/A   Clear
11:54 PM 78.1 °F - 73.0 °F 84% 29.96 in 10.0 mi NE 6.9 mph - N/A   Partly Cloudy